Nogales, AZ

9:21 AM MST on February 20, 2018 (GMT -0700)
Nogales International

Weather History for KOLS - October, 2012

Change the Weather History Date:

Monday, October 29, 2012

  Actual Average (KFHU) Record (KFHU)
Temperature  
Mean Temperature 65 °F -  
Max Temperature 84 °F 70 °F 87 °F (2001)
Min Temperature 46 °F 48 °F 32 °F (2011)
Growing Degree Days 15 (Base 50)    
Moisture  
Dew Point 29 °F    
Average Humidity 30    
Maximum Humidity 54    
Minimum Humidity 9    
Precipitation  
Precipitation 0.00 in - - ()
Sea Level Pressure  
Sea Level Pressure 30.02 in    
Wind  
Wind Speed 2 mph (ENE)    
Max Wind Speed 9 mph    
Max Gust Speed -    
Visibility 10 miles    
Events      
Averages and records for this station are not official NWS values.
T = Trace of Precipitation, MM = Missing Value Source: NWS Daily Summary

Daily Weather History Graph

Daily Weather History Graph

Search for Another Location

Airport or City:

Trip Planner

Search our weather history database for the weather conditions in past years. The results will help you decide how hot, cold, wet, or windy it might be!

Date:

Astronomy

Oct. 29, 2012 Rise Set
Actual Time 6:37 AM MST 5:36 PM MST
Civil Twilight 6:12 AM MST 6:01 PM MST
Nautical Twilight 5:43 AM MST 6:30 PM MST
Astronomical Twilight 5:15 AM MST 6:58 PM MST
Moon 5:33 PM MST (10/29) 6:29 AM MST (10/29)
Length of Visible Light 11h 49m
Length of Day
10h 59m
Full, 100% of the Moon is Illuminated
Oct 29
Full
Oct 29
Full
Nov 6
Last Quarter
Nov 13
New
Nov 20
First Quarter

Hourly Weather History & Observations

Time (MST) Temp. Dew Point Humidity Pressure Visibility Wind Dir Wind Speed Gust Speed Precip Events Conditions
12:54 AM 54.0 °F 28.9 °F 38% 30.00 in 10.0 mi Calm Calm - N/A   Clear
1:54 AM 53.1 °F 30.0 °F 41% 29.99 in 10.0 mi ENE 4.6 mph - N/A   Clear
2:54 AM 52.0 °F 30.9 °F 45% 29.99 in 10.0 mi Calm Calm - N/A   Clear
3:54 AM 50.0 °F 30.9 °F 48% 29.99 in 10.0 mi East 4.6 mph - N/A   Clear
4:54 AM 48.9 °F 30.9 °F 50% 30.01 in 10.0 mi Calm Calm - N/A   Clear
5:54 AM 46.9 °F 30.9 °F 54% 30.04 in 10.0 mi ENE 3.5 mph - N/A   Clear
6:54 AM 46.9 °F 30.9 °F 54% 30.08 in 10.0 mi Calm Calm - N/A   Clear
7:54 AM 57.9 °F 32.0 °F 37% 30.09 in 10.0 mi Calm Calm - N/A   Clear
8:54 AM 64.0 °F 32.0 °F 30% 30.09 in 10.0 mi Calm Calm - N/A   Clear
9:54 AM 73.9 °F 32.0 °F 21% 30.06 in 10.0 mi South 3.5 mph - N/A   Clear
10:54 AM 78.1 °F 32.0 °F 19% 30.06 in 10.0 mi Variable 3.5 mph - N/A   Clear
11:54 AM 82.0 °F 30.0 °F 15% 30.02 in 10.0 mi South 3.5 mph - N/A   Clear
12:54 PM 82.4 °F 28.4 °F 14% 30.15 in 10.0 mi SW 5.8 mph - N/A   Clear
1:54 PM 84.0 °F 26.1 °F 12% 29.96 in 10.0 mi Variable 3.5 mph - N/A   Clear
2:54 PM 84.0 °F 23.0 °F 11% 29.96 in 10.0 mi NW 9.2 mph - N/A   Clear
3:54 PM 84.0 °F 19.9 °F 9% 29.95 in 10.0 mi Variable 4.6 mph - N/A   Clear
4:54 PM 82.0 °F 26.1 °F 13% 29.96 in 10.0 mi Variable 4.6 mph - N/A   Clear
5:54 PM 75.0 °F 27.0 °F 17% 29.98 in 10.0 mi North 3.5 mph - N/A   Clear
6:54 PM 66.0 °F 26.1 °F 22% 30.01 in 10.0 mi NE 4.6 mph - N/A   Clear
7:54 PM 63.0 °F 27.0 °F 26% 30.01 in 10.0 mi NE 4.6 mph - N/A   Clear
8:54 PM 63.0 °F 28.9 °F 28% 30.02 in 10.0 mi NE 4.6 mph - N/A   Clear
9:54 PM 57.9 °F 28.9 °F 33% 30.01 in 10.0 mi East 3.5 mph - N/A   Clear
10:54 PM 55.9 °F 28.9 °F 36% 30.01 in 10.0 mi Calm Calm - N/A   Clear
11:54 PM 54.0 °F 28.9 °F 38% 30.00 in 10.0 mi Calm Calm - N/A   Clear